Location: Москва
(55.7504°N, 37.6175°E)
Time: 18:35:36
(UTC+03:00)

N. Korean satellite - Visible Passes

Search period start: 20 September 2021 00:00
Search period end: 30 September 2021 00:00
Orbit: 448 x 498 km, 97.3° (Epoch: 19 September)

Date Brightness Start Highest point End Pass type
(mag) Time Alt. Az. Time Alt. Az. Time Alt. Az.
21 Sep 9.1 05:13:56 10° NE 05:16:56 25° E 05:19:54 10° SSE visible
22 Sep 9.8 04:46:56 10° NE 04:48:55 14° E 04:50:54 10° ESE visible
24 Sep 8.6 05:23:43 10° NNE 05:26:55 32° E 05:30:09 10° SSE visible
25 Sep 9.7 04:56:28 10° NE 04:58:57 18° E 05:01:26 10° SE visible
27 Sep 8.1 05:33:29 10° NNE 05:36:52 40° E 05:40:16 10° S visible
28 Sep 9.4 05:06:04 10° NE 05:08:54 22° E 05:11:47 10° SE visible
29 Sep 10.0 04:39:16 10° ENE 04:40:51 12° E 04:42:25 10° ESE visible
